GW3133 Weather Reports


time (UTC)temp
C
wind
direction
speed
KPH
gust
KPH
rain 1hr
cm
rain 24hr
cm
rain mn
cm
humidity
%
barometer
mb
20260504140718 16 284 4.8 12.9 0.00 0.00 0.00 57 1015.8
20260504120118 13 259 6.4 24.1 0.00 0.00 0.00 68 1016.8
20260504110718 12 265 4.8 12.9 0.00 0.00 0.00 71 1017.0
20260504100418 13 268 3.2 8.0 0.00 0.00 0.00 71 1017.2
20260504090118 13 249 11.3 29.0 0.00 0.00 0.00 71 1016.9
20260504081618 13 251 11.3 27.4 0.00 0.00 0.00 72 1017.0
20260504060117 13 249 11.3 22.5 0.00 0.00 0.00 74 1017.2
20260504050717 12 250 4.8 9.7 0.00 0.00 0.00 70 1017.1
20260504045817 12 260 4.8 9.7 0.00 0.00 0.00 69 1017.1
20260504044017 12 261 4.8 9.7 0.00 0.00 0.00 66 1017.2
20260504043117 12 269 3.2 8.0 0.00 0.00 0.00 67 1017.3
20260504042217 12 265 3.2 8.0 0.00 0.00 0.00 68 1017.1
20260504041317 12 266 3.2 11.3 0.00 0.00 0.00 70 1017.1
20260504040417 12 266 3.2 8.0 0.00 0.00 0.00 70 1017.0
20260504035517 12 263 3.2 9.7 0.00 0.00 0.00 69 1016.9
20260504034617 12 272 3.2 8.0 0.00 0.00 0.00 68 1016.8
20260504033717 12 266 3.2 8.0 0.00 0.00 0.00 69 1016.8
20260504030117 12 259 3.2 8.0 0.00 0.00 0.00 70 1016.4
20260504025217 12 254 3.2 9.7 0.00 0.00 0.00 69 1016.5
20260504024317 12 259 3.2 9.7 0.00 0.00 0.00 68 1016.4
20260504022517 12 264 3.2 8.0 0.00 0.00 0.00 68 1016.4
20260504021617 12 260 3.2 8.0 0.00 0.00 0.00 67 1016.3
20260504020717 12 261 4.8 8.0 0.00 0.00 0.00 68 1016.4
20260504015817 12 261 3.2 6.4 0.00 0.00 0.00 65 1016.4
20260504014916 12 257 3.2 4.8 0.00 0.00 0.00 66 1016.3
20260504014017 12 258 3.2 4.8 0.00 0.00 0.00 69 1016.3
20260504013117 12 258 1.6 3.2 0.00 0.00 0.00 69 1016.2
20260504012217 12 258 1.6 3.2 0.00 0.00 0.00 69 1016.1
20260504011317 12 258 3.2 6.4 0.00 0.00 0.00 67 1016.0
20260504010417 12 287 0.0 3.2 0.00 0.00 0.00 72 1016.0
20260504005517 13 289 0.0 1.6 0.00 0.00 0.00 67 1016.0
20260504004616 13 289 0.0 1.6 0.00 0.00 0.00 65 1016.0
20260504003716 13 289 0.0 1.6 0.00 0.00 0.00 61 1015.9
20260504002816 14 291 0.0 4.8 0.00 0.00 0.00 56 1015.8
20260504001916 15 298 1.6 6.4 0.00 0.00 0.00 52 1015.7
20260504001016 15 294 1.6 6.4 0.00 0.00 0.00 50 1015.7
20260504000117 15 293 1.6 6.4 0.00 0.00 0.00 51 1015.6
20260503234316 15 302 1.6 9.7 0.00 0.00 0.00 51 1015.3
20260503233416 15 297 1.6 8.0 0.00 0.00 0.00 47 1015.3
20260503232516 15 296 1.6 9.7 0.00 0.00 0.00 46 1015.4
20260503231616 15 291 1.6 11.3 0.00 0.00 0.00 43 1015.3
20260503230716 16 296 1.6 6.4 0.00 0.00 0.00 45 1015.4
20260503225816 16 300 1.6 6.4 0.00 0.00 0.00 45 1015.4
20260503224916 16 294 3.2 9.7 0.00 0.00 0.00 44 1015.4
20260503224016 16 290 4.8 14.5 0.00 0.00 0.00 41 1015.5
20260503222216 17 293 3.2 9.7 0.00 0.00 0.00 43 1015.4
20260503221317 16 289 4.8 17.7 0.00 0.00 0.00 42 1015.4
20260503220416 16 291 3.2 11.3 0.00 0.00 0.00 40 1015.4
20260503215516 17 298 3.2 6.4 0.00 0.00 0.00 41 1015.4
20260503214616 16 291 4.8 9.7 0.00 0.00 0.00 42 1015.4
20260503213716 16 293 4.8 12.9 0.00 0.00 0.00 43 1015.4
20260503212816 16 295 3.2 11.3 0.00 0.00 0.00 41 1015.4
20260503211916 16 294 4.8 11.3 0.00 0.00 0.00 43 1015.4
20260503211016 16 298 4.8 11.3 0.00 0.00 0.00 43 1015.4
20260503210116 16 301 4.8 14.5 0.00 0.00 0.00 45 1015.4
20260503205216 16 296 4.8 12.9 0.00 0.00 0.00 41 1015.4
20260503204316 16 305 4.8 16.1 0.00 0.00 0.00 42 1015.6
20260503203416 16 293 4.8 16.1 0.00 0.00 0.00 41 1015.5
20260503202516 16 297 4.8 16.1 0.00 0.00 0.00 41 1015.6
20260503200716 16 295 4.8 14.5 0.00 0.00 0.00 43 1015.9
20260503194340 16 295 3.2 14.5 0.00 0.00 0.00 45 1016.1
20260503193441 16 291 3.2 11.3 0.00 0.00 0.00 44 1016.3
20260503192541 15 292 3.2 12.9 0.00 0.00 0.00 44 1016.4
20260503191640 15 302 4.8 16.1 0.00 0.00 0.00 42 1016.6
20260503185841 15 289 4.8 16.1 0.00 0.00 0.00 43 1016.6
20260503184041 15 356 4.8 17.7 0.00 0.00 0.00 42 1017.0
20260503183140 15 354 3.2 9.7 0.00 0.00 0.00 43 1017.1
20260503182241 15 7 4.8 17.7 0.00 0.00 0.00 44 1017.1
20260503181341 14 351 4.8 17.7 0.00 0.00 0.00 45 1017.2
20260503180441 14 22 6.4 17.7 0.00 0.00 0.00 45 1017.2
20260503175541 14 5 4.8 17.7 0.00 0.00 0.00 44 1017.1
20260503174641 14 323 4.8 17.7 0.00 0.00 0.00 44 1017.3
20260503173741 14 2 4.8 16.1 0.00 0.00 0.00 46 1017.3
20260503172841 13 358 6.4 17.7 0.00 0.00 0.00 46 1017.4
20260503171941 13 348 4.8 17.7 0.00 0.00 0.00 43 1017.5
20260503171041 13 356 4.8 12.9 0.00 0.00 0.00 43 1017.5
20260503170141 13 14 8.0 16.1 0.00 0.00 0.00 45 1017.6
20260503150440 11 5 8.0 20.9 0.00 0.00 0.00 53 1018.1